| time (UTC) | temp F | wind direction | speed MPH | gust MPH | rain 1hr in | rain 24hr in | rain mn in | humidity % | barometer mb |
| 20260502170153 | 59 | 0.0 | 0.0 | 0.00 | 0.00 | 0.00 | 61 | ||
| 20260502163154 | 59 | 0.0 | 0.0 | 0.00 | 0.00 | 0.00 | 63 | ||
| 20260502160153 | 60 | 0.0 | 0.0 | 0.00 | 0.00 | 0.00 | 63 | ||
| 20260502150154 | 61 | 0.0 | 0.0 | 0.00 | 0.00 | 0.00 | 59 | ||
| 20260502130155 | 66 | 0.0 | 0.0 | 0.00 | 0.00 | 0.00 | 49 | ||
| 20260502123154 | 67 | 0.0 | 0.0 | 0.00 | 0.00 | 0.00 | 48 | ||
| 20260502120153 | 68 | 0.0 | 0.0 | 0.00 | 0.00 | 0.00 | 47 | ||
| 20260502113155 | 69 | 0.0 | 0.0 | 0.00 | 0.00 | 0.00 | 44 | ||
| 20260502110155 | 70 | 0.0 | 0.0 | 0.00 | 0.00 | 0.00 | 42 | ||
| 20260502103153 | 73 | 0.0 | 0.0 | 0.00 | 0.00 | 0.00 | 36 | ||
| 20260502100154 | 74 | 0.0 | 0.0 | 0.00 | 0.00 | 0.00 | 31 | ||
| 20260502090153 | 78 | 0.0 | 0.0 | 0.00 | 0.00 | 0.00 | 26 | ||
| 20260502065011 | 84 | 0.0 | 0.0 | 0.00 | 0.00 | 0.00 | 24 | ||
| 20260502062011 | 84 | 0.0 | 0.0 | 0.00 | 0.00 | 0.00 | 23 | ||
| 20260502055012 | 83 | 0.0 | 0.0 | 0.00 | 0.00 | 0.00 | 24 | ||
| 20260502052012 | 82 | 0.0 | 0.0 | 0.00 | 0.00 | 0.00 | 25 | ||
| 20260502045011 | 81 | 0.0 | 0.0 | 0.00 | 0.00 | 0.00 | 26 | ||
| 20260502042009 | 80 | 0.0 | 0.0 | 0.00 | 0.00 | 0.00 | 27 | ||
| 20260502035011 | 79 | 0.0 | 0.0 | 0.00 | 0.00 | 0.00 | 27 | ||
| 20260502032009 | 78 | 0.0 | 0.0 | 0.00 | 0.00 | 0.00 | 28 | ||
| 20260502025010 | 77 | 0.0 | 0.0 | 0.00 | 0.00 | 0.00 | 29 | ||
| 20260502022010 | 76 | 0.0 | 0.0 | 0.00 | 0.00 | 0.00 | 31 | ||
| 20260502015010 | 74 | 0.0 | 0.0 | 0.00 | 0.00 | 0.00 | 34 | ||
| 20260502012011 | 72 | 0.0 | 0.0 | 0.00 | 0.00 | 0.00 | 35 | ||
| 20260502005011 | 71 | 0.0 | 0.0 | 0.00 | 0.00 | 0.00 | 35 | ||
| 20260502002011 | 70 | 0.0 | 0.0 | 0.00 | 0.00 | 0.00 | 36 | ||
| 20260501235011 | 69 | 0.0 | 0.0 | 0.00 | 0.00 | 0.00 | 38 | ||
| 20260501232009 | 67 | 0.0 | 0.0 | 0.00 | 0.00 | 0.00 | 40 | ||
| 20260501225010 | 65 | 0.0 | 0.0 | 0.00 | 0.00 | 0.00 | 42 | ||
| 20260501222012 | 63 | 0.0 | 0.0 | 0.00 | 0.00 | 0.00 | 47 | ||
| 20260501215009 | 61 | 0.0 | 0.0 | 0.00 | 0.00 | 0.00 | 58 | ||
| 20260501212011 | 59 | 0.0 | 0.0 | 0.00 | 0.00 | 0.00 | 63 | ||
| 20260501205010 | 58 | 0.0 | 0.0 | 0.00 | 0.00 | 0.00 | 68 | ||
| 20260501202009 | 58 | 0.0 | 0.0 | 0.00 | 0.00 | 0.00 | 68 | ||
| 20260501195011 | 57 | 0.0 | 0.0 | 0.00 | 0.00 | 0.00 | 72 | ||
| 20260501192010 | 56 | 0.0 | 0.0 | 0.00 | 0.00 | 0.00 | 76 | ||
| 20260501185012 | 56 | 0.0 | 0.0 | 0.00 | 0.00 | 0.00 | 74 | ||
| 20260501182010 | 56 | 0.0 | 0.0 | 0.00 | 0.00 | 0.00 | 73 | ||
| 20260501175010 | 56 | 0.0 | 0.0 | 0.00 | 0.00 | 0.00 | 75 | ||
| 20260501172011 | 56 | 0.0 | 0.0 | 0.00 | 0.00 | 0.00 | 78 |